#timestamp,LO_Frequency,Hit,StdDev 
1631466015.7,286047001.2,N
1631466035.5,286047001.8,N
1631466055.3,286047002.0,N
1631466075.2,286047003.1,N
1631466095.0,286047005.2,N
1631466095.9,286047005.2,N
1631466115.8,286047009.0,N
1631466135.6,286047007.8,N
1631466155.4,286047009.7,N
1631466175.3,286047014.4,N
1631466195.1,286047014.2,N
1631466215.8,286047018.4,N
1631466235.7,286047018.5,N
1631466255.5,286047017.8,N
1631466275.4,286047021.8,N
1631466295.2,286047021.8,N
1631466315.0,286047025.2,N
1631466315.9,286047025.2,N
1631466335.8,286047024.8,N
1631466355.6,286047024.2,N
1631466375.5,286047024.9,N
1631466395.3,286047027.9,N
1631466415.1,286047027.9,N
1631466435.9,286047025.3,N
1631466455.7,286047028.4,N
1631466475.5,286047029.8,N
1631466495.4,286047029.5,N
1631466515.2,286047029.1,N
1631466535.1,286047029.1,N
1631466536.0,286047029.1,N
1631466555.8,286047027.0,N
1631466575.6,286047028.5,Y
1631466595.5,286047012.4,P
1631466615.3,286047011.4,P
1631466635.2,286047013.0,P
1631466655.9,286047012.5,Y
1631466675.7,286047000.8,P
1631466695.6,286047002.5,N
1631466715.4,286047002.0,N
1631466735.2,286047003.3,N
1631466755.1,286047005.7,N
1631466756.0,286047005.7,N
1631466775.8,286047003.5,N
1631466795.7,286047005.7,N
1631466815.5,286047003.0,N
1631466835.3,286047007.4,N
1631466885.2,286047004.8,E
1631466895.1,286047003.1,N
1631466915.9,286047004.0,P
1631466935.7,286047001.8,P
1631466955.5,286047001.3,N
1631466975.4,286047003.9,Y
1631466995.2,286047002.6,P
1631467015.0,286047001.6,P
1631467015.9,286047001.6,P
1631467035.8,286047001.3,N
1631467055.6,286047006.0,Y
1631467075.5,286047003.0,P
1631467095.3,286047005.3,P
1631467115.1,286047005.9,P
1631467135.9,286047007.2,Y
1631467155.7,286047001.8,P
1631467175.6,286047005.7,P
1631467195.4,286047003.3,N
1631467215.2,286047005.9,Y
1631467235.1,286047002.5,P
1631467236.0,286047002.5,P
1631467255.8,286046999.8,N
1631467275.7,286047002.0,N
1631467295.5,286047001.7,N
1631467315.4,286047002.6,N
1631467335.2,286047001.2,N
1631467355.1,286046997.8,N
1631467356.0,286046997.8,N
1631467375.8,286046993.4,Y
1631467395.6,286046992.0,P
1631467415.5,286046992.4,N
1631467435.3,286046991.9,N
1631467455.2,286046990.5,N
1631467475.9,286046991.4,N
1631467495.7,286046989.0,Y
1631467515.6,286046996.0,P
1631467535.4,286046992.6,P
1631467555.2,286046991.1,P
1631467575.1,286046989.1,Y
1631467576.0,286046989.1,P
1631467595.8,286046994.3,N
1631467615.7,286046991.9,P
1631467635.5,286046992.9,Y
1631467655.3,286046999.0,P
1631467675.2,286046997.8,N
1631467695.0,286046997.1,N
1631467695.9,286046997.1,N
1631467715.8,286046994.9,N
1631467735.6,286046994.1,N
1631467755.5,286046995.7,N
1631467775.3,286046995.8,N
1631467795.1,286046993.4,Y
1631467815.9,286046999.5,P
1631467835.7,286046996.7,N
1631467855.6,286046994.9,P
1631467875.4,286046995.4,N
1631467895.2,286046993.6,Y
1631467915.1,286046997.8,P
1631467916.0,286046997.8,P
1631467935.8,286046999.5,N
1631467955.7,286046996.8,Y
1631467975.5,286046999.1,P
1631467995.3,286046998.3,N
1631468015.2,286046999.0,N
1631468035.0,286046998.5,Y
1631468035.9,286046998.5,P
1631468055.8,286047000.3,P
1631468075.6,286046998.7,N
1631468095.4,286046999.3,N
1631468115.3,286046998.7,N
1631468135.1,286046997.8,Y
1631468155.9,286046999.4,P
1631468175.7,286046998.4,P
1631468195.5,286047001.1,N
1631468215.4,286047000.5,N
1631468235.2,286047000.9,N
1631468255.0,286046998.6,N
1631468255.9,286046998.6,N
1631468275.8,286046999.4,N
1631468295.6,286046997.3,N
1631468315.5,286046997.3,N
1631468335.3,286046997.3,N
1631468355.1,286046999.6,N
1631468375.9,286046996.7,N
1631468395.7,286046995.4,Y
1631468415.5,286046997.8,P
1631468435.4,286046996.7,P
1631468455.2,286046999.5,N
1631468475.1,286047011.9,Y
1631468476.0,286046996.6,P
1631468495.8,286046999.8,N
1631468515.6,286047002.0,N
1631468535.5,286047000.1,N
1631468555.3,286047000.0,N
1631468575.2,286047002.5,N
1631468595.9,286047001.9,N
1631468615.7,286047004.0,N
1631468635.6,286047001.3,N
1631468655.4,286047001.5,N
1631468675.2,286047001.8,N
1631468695.1,286047001.8,N
1631468696.0,286047001.8,N
1631468715.8,286047002.4,N
1631468735.7,286046999.9,N
1631468755.5,286047002.5,N
1631468775.3,286047001.4,N
1631468795.2,286047004.2,N
1631468815.9,286047004.2,N
1631468835.7,286047001.7,N
1631468855.6,286047004.0,N
1631468875.4,286047003.0,N
1631468895.3,286047004.7,N
1631468915.1,286047007.3,Y
1631468916.0,286047007.3,P
1631468935.8,286047005.8,N
1631468955.7,286047005.6,N
1631468975.5,286047003.6,N
1631468995.3,286047003.7,N
1631469015.2,286047003.0,N
1631469035.0,286047005.4,Y
1631469035.9,286047005.4,P
1631469055.8,286047000.3,N
1631469075.6,286047002.6,N
1631469095.4,286047001.6,N
1631469115.3,286047001.7,N
1631469135.1,286047003.4,N
1631469155.9,286047003.0,N
1631469175.7,286047005.9,Y
1631469195.5,286047004.0,P
1631469215.4,286047006.0,P
1631469235.2,286047005.7,P
1631469255.0,286047005.3,Y
1631469256.0,286047005.3,P
1631469275.8,286047002.1,P
1631469295.6,286047001.7,N
1631469315.5,286047003.9,N
1631469335.3,286047005.6,Y
1631469355.1,286047002.7,P
1631469375.9,286047000.0,N
1631469395.7,286047002.3,N
1631469415.6,286047004.0,Y
1631469435.4,286047001.8,P
1631469455.2,286047002.1,P
1631469475.1,286047004.2,P
1631469476.0,286047004.2,Y
1631469495.8,286047000.0,P
1631469515.7,286047000.3,N
1631469535.5,286047002.0,N
1631469555.3,286047002.2,N
1631469575.2,286047001.5,N
1631469595.9,286047002.0,N
